Flag for Brazil Weather past 2 weeks in São Luis, Maranhão, Brazil

Now
79 °F

Passing clouds.


Feels Like: 82 °F
Forecast: 78 / 85 °F
Wind: 3 mph from East

Location: Sao Luiz Aeroporto

Current Time: Apr 18, 2015 at 5:08:44 AM

Latest Report: Apr 18, 2015 at 4:00 AM


Visibility: N/A

Pressure: 29.83 "Hg

Humidity: 84%

Dew point: 73 °F

Location of São LuisLocation

Historic Weather in São Luis — Graph

°F

São Luis temperature yesterday

Maximum temperature yesterday: 88 °F (at 12:00 PM)
Minimum temperature yesterday: 77 °F (at 2:00 AM)
Average temperature yesterday: 81 °F

Past Weeks' High & Low Weather Summary

 TemperatureHumidityPressure
High88 °F (Apr 11, 12:00 PM)94% (Apr 11, 5:00 AM)29.95 "Hg (Apr 11, 5:00 AM)
Low75 °F (Apr 3, 5:00 PM)59% (Apr 4, 2:00 PM)29.77 "Hg (Apr 4, 2:00 PM)
Average80 °F80%29.87 "Hg
* Reported Apr 3 3:00 AM — Apr 18 3:00 AM, São Luis, Weather by CustomWeather, © 2015

Note: Actual official high and low records may vary slightly from our data, if they occured in-between our weather recording intervals... More about our weather records

Advertising

São Luis weather history for previous 24 hours

 ConditionsComfort  
Time TempWeatherWind HumidityBarometerVisibility
3:00 AM
Sat, Apr 18
79 °FPassing clouds.5 mph84%29.83 "HgN/A
2:00 AM79 °FPassing clouds.5 mph84%29.86 "HgN/A
1:00 AM79 °FClear.6 mph84%29.86 "Hg10 mi
12:00 AM79 °FClear.5 mph84%29.89 "Hg10 mi
11:00 PM
Fri, Apr 17
79 °FClear.1 mph84%29.89 "Hg10 mi
10:00 PM79 °FClear.6 mph84%29.89 "Hg10 mi
9:00 PM81 °FPassing clouds.5 mph79%29.89 "HgN/A
8:00 PM81 °FPassing clouds.3 mph79%29.86 "HgN/A
7:00 PM81 °FPassing clouds.8 mph79%29.83 "HgN/A
6:00 PM81 °FPassing clouds.5 mph79%29.80 "HgN/A
5:00 PM81 °FPassing clouds.3 mph79%29.80 "HgN/A
4:00 PM79 °FPassing clouds.10 mph79%29.80 "HgN/A
3:00 PM77 °FThunderstorms. Partly sunny.17 mph83%29.83 "Hg2 mi
2:00 PM82 °FLight rain. Scattered clouds.18 mph74%29.83 "HgN/A
1:00 PM84 °FPartly sunny.7 mph70%29.86 "HgN/A
12:00 PM88 °FPartly sunny.8 mph62%29.89 "HgN/A
11:00 AM86 °FPartly sunny.7 mph66%29.92 "HgN/A
10:00 AM86 °FScattered clouds.14 mph66%29.92 "HgN/A
9:00 AM84 °FScattered clouds.10 mph70%29.92 "HgN/A
8:00 AM82 °FScattered clouds.6 mph79%29.89 "HgN/A
7:00 AM79 °FScattered clouds.10 mph89%29.89 "HgN/A
6:00 AM79 °FScattered showers. Scattered clouds.2 mph84%29.86 "Hg6 mi
5:00 AM77 °FPassing clouds.No wind89%29.83 "HgN/A
Weather by CustomWeather, © 2015

See weather overviewHow to use our weather pages